Location: ??????????
(44.2167°N, 135.5333°E)
Time: 14:53:17
(UTC+00:00)

Cosmos 1943 - Pass Details

Date: 15 June 2025
Orbit: 830 x 849 km, 71.0° (Epoch: 15 July)

Event Time Altitude Azimuth Distance (km) Brightness Sun altitude
Rises 14:51:59 0° 324° (NW) 3,423 7.2 -22.4°
Reaches altitude 10° 14:54:46 10° 313° (NW) 2,483 6.2 -22.4°
Maximum altitude 14:59:27 27° 257° (WSW) 1,575 4.5 -22.4°
Enters shadow 15:00:25 26° 241° (WSW) 1,622 4.4 -22.4°
